Time,TemperatureF,DewpointF,PressureIn,WindDirection,WindDirectionDegrees,WindSpeedMPH,WindSpeedGustMPH,Humidity,HourlyPrecipIn,Conditions,Clouds,dailyrainin,SoftwareType,DateUTC
2013-06-06 00:02:00,84.0,46.0,29.85,SW,222,15.0,22.0,27,0.00,,,0.00,,2013-06-06 07:02:00,
2013-06-06 00:12:00,84.0,46.0,29.85,SW,222,15.0,22.0,27,0.00,,,0.00,,2013-06-06 07:12:00,
2013-06-06 00:22:00,85.0,46.0,29.84,SW,222,15.0,23.0,26,0.00,,,0.00,,2013-06-06 07:22:00,
2013-06-06 00:32:00,84.0,46.0,29.84,South,191,13.0,20.0,27,0.00,,,0.00,,2013-06-06 07:32:00,
2013-06-06 00:42:00,84.0,46.0,29.84,South,191,13.0,20.0,27,0.00,,,0.00,,2013-06-06 07:42:00,
2013-06-06 00:52:00,84.0,47.0,29.84,SW,219,15.0,18.0,28,0.00,,,0.00,,2013-06-06 07:52:00,
2013-06-06 01:02:00,83.0,47.0,29.84,SSW,208,13.0,19.0,29,0.00,,,0.00,,2013-06-06 08:02:00,
2013-06-06 01:11:00,83.0,47.0,29.84,SSW,208,13.0,19.0,29,0.00,,,0.00,,2013-06-06 08:11:00,
2013-06-06 01:22:00,82.0,47.0,29.83,SSW,205,13.0,23.0,29,0.00,,,0.00,,2013-06-06 08:22:00,
2013-06-06 01:31:00,83.0,47.0,29.84,SW,230,15.0,26.0,29,0.00,,,0.00,,2013-06-06 08:31:00,
2013-06-06 01:42:00,82.0,47.0,29.84,SSW,206,14.0,23.0,30,0.00,,,0.00,,2013-06-06 08:42:00,
2013-06-06 01:52:00,82.0,47.0,29.84,SSW,206,14.0,23.0,30,0.00,,,0.00,,2013-06-06 08:52:00,
2013-06-06 02:01:00,82.0,47.0,29.84,SSW,203,14.0,23.0,30,0.00,,,0.00,,2013-06-06 09:01:00,
2013-06-06 02:12:00,82.0,47.0,29.84,SSW,203,14.0,23.0,30,0.00,,,0.00,,2013-06-06 09:12:00,
2013-06-06 02:22:00,82.0,47.0,29.84,SW,215,14.0,20.0,30,0.00,,,0.00,,2013-06-06 09:22:00,
2013-06-06 02:32:00,82.0,47.0,29.84,SW,219,12.0,21.0,29,0.00,,,0.00,,2013-06-06 09:32:00,
2013-06-06 02:42:00,82.0,47.0,29.84,SW,219,12.0,21.0,29,0.00,,,0.00,,2013-06-06 09:42:00,
2013-06-06 02:53:00,82.0,47.0,29.84,SSW,195,11.0,15.0,29,0.00,,,0.00,,2013-06-06 09:53:00,
2013-06-06 03:02:00,82.0,47.0,29.83,SSW,200,13.0,17.0,29,0.00,,,0.00,,2013-06-06 10:02:00,
2013-06-06 03:12:00,81.0,47.0,29.83,SW,219,14.0,17.0,30,0.00,,,0.00,,2013-06-06 10:12:00,
2013-06-06 03:22:00,81.0,47.0,29.83,SW,219,14.0,17.0,30,0.00,,,0.00,,2013-06-06 10:22:00,
2013-06-06 03:32:00,81.0,47.0,29.83,SW,215,12.0,17.0,31,0.00,,,0.00,,2013-06-06 10:32:00,
2013-06-06 03:42:00,81.0,47.0,29.83,SW,215,12.0,17.0,31,0.00,,,0.00,,2013-06-06 10:42:00,
2013-06-06 03:52:00,80.0,47.0,29.83,SSW,207,10.0,18.0,31,0.00,,,0.00,,2013-06-06 10:52:00,
2013-06-06 04:02:00,80.0,47.0,29.84,SSW,202,12.0,16.0,31,0.00,,,0.00,,2013-06-06 11:02:00,
2013-06-06 04:12:00,80.0,47.0,29.84,SSW,202,12.0,16.0,31,0.00,,,0.00,,2013-06-06 11:12:00,
2013-06-06 04:22:00,80.0,47.0,29.84,SSW,209,12.0,16.0,32,0.00,,,0.00,,2013-06-06 11:22:00,
2013-06-06 04:32:00,80.0,47.0,29.83,SW,219,12.0,16.0,31,0.00,,,0.00,,2013-06-06 11:32:00,
2013-06-06 04:42:00,80.0,47.0,29.83,SW,219,12.0,16.0,31,0.00,,,0.00,,2013-06-06 11:42:00,
2013-06-06 04:52:00,80.0,47.0,29.84,SSW,207,11.0,15.0,32,0.00,,,0.00,,2013-06-06 11:52:00,
2013-06-06 05:02:00,80.0,47.0,29.84,WSW,249,9.0,16.0,32,0.00,,,0.00,,2013-06-06 12:02:00,
2013-06-06 05:12:00,80.0,47.0,29.84,WSW,249,9.0,16.0,32,0.00,,,0.00,,2013-06-06 12:12:00,
2013-06-06 05:22:00,79.0,47.0,29.84,SW,215,8.0,14.0,32,0.00,,,0.00,,2013-06-06 12:22:00,
2013-06-06 05:32:00,79.0,47.0,29.84,SW,217,8.0,14.0,32,0.00,,,0.00,,2013-06-06 12:32:00,
2013-06-06 05:42:00,79.0,47.0,29.84,SW,217,6.0,10.0,32,0.00,,,0.00,,2013-06-06 12:42:00,
2013-06-06 05:52:00,79.0,47.0,29.84,SW,217,6.0,10.0,32,0.00,,,0.00,,2013-06-06 12:52:00,
2013-06-06 06:02:00,79.0,47.0,29.84,SSW,197,8.0,11.0,32,0.00,,,0.00,,2013-06-06 13:02:00,
2013-06-06 06:22:00,79.0,47.0,29.85,SW,226,8.0,14.0,32,0.00,,,0.00,,2013-06-06 13:22:00,
2013-06-06 06:32:00,79.0,46.0,29.85,SW,219,6.0,12.0,31,0.00,,,0.00,,2013-06-06 13:32:00,
2013-06-06 06:42:00,79.0,46.0,29.85,SW,219,6.0,12.0,31,0.00,,,0.00,,2013-06-06 13:42:00,
2013-06-06 06:52:00,79.0,46.0,29.85,WSW,240,2.0,5.0,31,0.00,,,0.00,,2013-06-06 13:52:00,
2013-06-06 07:02:00,79.0,47.0,29.86,WSW,240,0.0,2.0,32,0.00,,,0.00,,2013-06-06 14:02:00,
2013-06-06 07:22:00,80.0,47.0,29.87,East,83,0.0,3.0,31,0.00,,,0.00,,2013-06-06 14:22:00,
2013-06-06 07:32:00,80.0,46.0,29.87,East,80,0.0,0.0,30,0.00,,,0.00,,2013-06-06 14:32:00,
2013-06-06 07:42:00,80.0,46.0,29.87,East,80,0.0,0.0,30,0.00,,,0.00,,2013-06-06 14:42:00,
2013-06-06 07:53:00,82.0,47.0,29.87,East,79,0.0,1.0,29,0.00,,,0.00,,2013-06-06 14:53:00,
2013-06-06 08:02:00,83.0,47.0,29.87,SE,137,0.0,0.0,28,0.00,,,0.00,,2013-06-06 15:02:00,
2013-06-06 08:12:00,83.0,47.0,29.87,SE,137,0.0,0.0,28,0.00,,,0.00,,2013-06-06 15:12:00,
2013-06-06 08:22:00,84.0,46.0,29.88,South,180,0.0,3.0,27,0.00,,,0.00,,2013-06-06 15:22:00,
2013-06-06 08:32:00,85.0,47.0,29.88,SE,136,2.0,4.0,27,0.00,,,0.00,,2013-06-06 15:32:00,
2013-06-06 08:42:00,85.0,47.0,29.88,SE,136,2.0,4.0,27,0.00,,,0.00,,2013-06-06 15:42:00,
2013-06-06 08:53:00,88.0,48.0,29.89,East,99,1.0,5.0,25,0.00,,,0.00,,2013-06-06 15:53:00,
2013-06-06 09:02:00,89.0,47.0,29.88,East,99,0.0,3.0,24,0.00,,,0.00,,2013-06-06 16:02:00,
2013-06-06 09:12:00,89.0,47.0,29.88,East,99,0.0,3.0,24,0.00,,,0.00,,2013-06-06 16:12:00,
2013-06-06 09:22:00,92.0,48.0,29.88,East,99,1.0,3.0,22,0.00,,,0.00,,2013-06-06 16:22:00,
2013-06-06 09:33:00,93.0,46.0,29.88,East,99,1.0,2.0,20,0.00,,,0.00,,2013-06-06 16:33:00,
2013-06-06 09:42:00,93.0,46.0,29.88,East,99,1.0,2.0,20,0.00,,,0.00,,2013-06-06 16:42:00,
2013-06-06 09:53:00,95.0,46.0,29.88,East,83,3.0,5.0,19,0.00,,,0.00,,2013-06-06 16:53:00,
2013-06-06 10:02:00,96.0,47.0,29.88,East,80,2.0,5.0,19,0.00,,,0.00,,2013-06-06 17:02:00,
2013-06-06 10:12:00,97.0,46.0,29.88,ENE,58,3.0,6.0,18,0.00,,,0.00,,2013-06-06 17:12:00,
2013-06-06 10:22:00,97.0,46.0,29.88,ENE,58,3.0,6.0,18,0.00,,,0.00,,2013-06-06 17:22:00,
2013-06-06 10:32:00,98.0,46.0,29.88,ENE,78,3.0,7.0,17,0.00,,,0.00,,2013-06-06 17:32:00,
2013-06-06 10:42:00,98.0,46.0,29.88,ENE,78,3.0,7.0,17,0.00,,,0.00,,2013-06-06 17:42:00,
2013-06-06 10:53:00,99.0,43.0,29.87,East,99,4.0,6.0,15,0.00,,,0.00,,2013-06-06 17:53:00,
2013-06-06 11:02:00,99.0,41.0,29.87,East,79,1.0,7.0,14,0.00,,,0.00,,2013-06-06 18:02:00,
2013-06-06 11:12:00,99.0,41.0,29.87,East,79,1.0,7.0,14,0.00,,,0.00,,2013-06-06 18:12:00,
2013-06-06 11:22:00,101.0,43.0,29.87,ESE,111,4.0,9.0,14,0.00,,,0.00,,2013-06-06 18:22:00,
2013-06-06 11:33:00,101.0,43.0,29.87,East,84,4.0,10.0,14,0.00,,,0.00,,2013-06-06 18:33:00,
2013-06-06 11:42:00,101.0,43.0,29.87,East,84,4.0,10.0,14,0.00,,,0.00,,2013-06-06 18:42:00,
2013-06-06 11:53:00,102.0,42.0,29.87,ESE,114,1.0,10.0,13,0.00,,,0.00,,2013-06-06 18:53:00,
2013-06-06 12:02:00,102.0,42.0,29.86,ESE,111,1.0,5.0,13,0.00,,,0.00,,2013-06-06 19:02:00,
2013-06-06 12:23:00,104.0,41.0,29.86,East,84,3.0,11.0,12,0.00,,,0.00,,2013-06-06 19:23:00,
2013-06-06 12:32:00,103.0,41.0,29.86,East,92,7.0,16.0,12,0.00,,,0.00,,2013-06-06 19:32:00,
2013-06-06 12:53:00,104.0,39.0,29.85,ENE,63,4.0,12.0,11,0.00,,,0.00,,2013-06-06 19:53:00,
2013-06-06 13:02:00,104.0,39.0,29.85,East,87,5.0,10.0,11,0.00,,,0.00,,2013-06-06 20:02:00,
2013-06-06 13:22:00,105.0,40.0,29.84,East,79,3.0,15.0,11,0.00,,,0.00,,2013-06-06 20:22:00,
2013-06-06 13:32:00,106.0,41.0,29.84,East,80,3.0,7.0,11,0.00,,,0.00,,2013-06-06 20:32:00,
2013-06-06 13:42:00,106.0,41.0,29.84,East,80,3.0,7.0,11,0.00,,,0.00,,2013-06-06 20:42:00,
2013-06-06 13:53:00,108.0,40.0,29.83,East,79,5.0,12.0,10,0.00,,,0.00,,2013-06-06 20:53:00,
2013-06-06 14:02:00,107.0,36.0,29.83,ESE,107,4.0,13.0,9,0.00,,,0.00,,2013-06-06 21:02:00,
2013-06-06 14:22:00,108.0,40.0,29.82,East,94,2.0,4.0,10,0.00,,,0.00,,2013-06-06 21:22:00,
2013-06-06 14:32:00,108.0,40.0,29.82,NE,42,6.0,14.0,10,0.00,,,0.00,,2013-06-06 21:32:00,
2013-06-06 14:43:00,108.0,40.0,29.82,NE,42,6.0,14.0,10,0.00,,,0.00,,2013-06-06 21:43:00,
2013-06-06 14:53:00,108.0,37.0,29.81,South,190,1.0,13.0,9,0.00,,,0.00,,2013-06-06 21:53:00,
2013-06-06 15:02:00,109.0,38.0,29.80,SSE,158,3.0,6.0,9,0.00,,,0.00,,2013-06-06 22:02:00,
2013-06-06 15:22:00,109.0,38.0,29.80,South,179,9.0,16.0,9,0.00,,,0.00,,2013-06-06 22:22:00,
2013-06-06 15:33:00,108.0,37.0,29.80,SW,217,3.0,13.0,9,0.00,,,0.00,,2013-06-06 22:33:00,
2013-06-06 15:43:00,108.0,37.0,29.80,SW,217,3.0,13.0,9,0.00,,,0.00,,2013-06-06 22:43:00,
2013-06-06 15:53:00,110.0,38.0,29.79,West,281,7.0,11.0,9,0.00,,,0.00,,2013-06-06 22:53:00,
2013-06-06 16:02:00,110.0,38.0,29.78,North,355,6.0,9.0,9,0.00,,,0.00,,2013-06-06 23:02:00,
2013-06-06 16:22:00,111.0,39.0,29.78,SW,232,5.0,14.0,9,0.00,,,0.00,,2013-06-06 23:22:00,
2013-06-06 16:33:00,110.0,38.0,29.80,SW,223,9.0,17.0,9,0.00,,,0.00,,2013-06-06 23:33:00,
2013-06-06 16:42:00,110.0,38.0,29.80,SW,223,9.0,17.0,9,0.00,,,0.00,,2013-06-06 23:42:00,
2013-06-06 16:52:00,110.0,38.0,29.79,SSE,163,3.0,12.0,9,0.00,,,0.00,,2013-06-06 23:52:00,
2013-06-06 17:02:00,111.0,42.0,29.79,NNW,334,5.0,14.0,10,0.00,,,0.00,,2013-06-07 00:02:00,
2013-06-06 17:22:00,109.0,38.0,29.78,NW,304,6.0,9.0,9,0.00,,,0.00,,2013-06-07 00:22:00,
2013-06-06 17:32:00,110.0,38.0,29.78,SW,223,6.0,12.0,9,0.00,,,0.00,,2013-06-07 00:32:00,
2013-06-06 17:42:00,110.0,38.0,29.78,SW,223,6.0,12.0,9,0.00,,,0.00,,2013-06-07 00:42:00,
2013-06-06 17:52:00,108.0,37.0,29.78,West,273,2.0,10.0,9,0.00,,,0.00,,2013-06-07 00:52:00,
2013-06-06 18:02:00,108.0,40.0,29.78,SSW,213,7.0,12.0,10,0.00,,,0.00,,2013-06-07 01:02:00,
2013-06-06 18:22:00,107.0,39.0,29.77,South,170,10.0,15.0,10,0.00,,,0.00,,2013-06-07 01:22:00,
2013-06-06 18:32:00,106.0,38.0,29.77,SW,215,5.0,14.0,10,0.00,,,0.00,,2013-06-07 01:32:00,
2013-06-06 18:42:00,106.0,38.0,29.77,SW,215,5.0,14.0,10,0.00,,,0.00,,2013-06-07 01:42:00,
2013-06-06 18:52:00,105.0,37.0,29.77,SSE,167,2.0,9.0,10,0.00,,,0.00,,2013-06-07 01:52:00,
2013-06-06 19:02:00,105.0,37.0,29.77,SW,236,11.0,17.0,10,0.00,,,0.00,,2013-06-07 02:02:00,
2013-06-06 19:22:00,103.0,36.0,29.77,SSW,205,6.0,11.0,10,0.00,,,0.00,,2013-06-07 02:22:00,
2013-06-06 19:32:00,103.0,36.0,29.77,SE,141,6.0,14.0,10,0.00,,,0.00,,2013-06-07 02:32:00,
2013-06-06 19:42:00,103.0,36.0,29.77,SE,141,6.0,14.0,10,0.00,,,0.00,,2013-06-07 02:42:00,
2013-06-06 19:52:00,101.0,37.0,29.77,WNW,291,3.0,6.0,11,0.00,,,0.00,,2013-06-07 02:52:00,
2013-06-06 20:02:00,101.0,39.0,29.78,SSE,168,10.0,14.0,12,0.00,,,0.00,,2013-06-07 03:02:00,
2013-06-06 20:22:00,98.0,47.0,29.79,WSW,251,3.0,13.0,18,0.00,,,0.00,,2013-06-07 03:22:00,
2013-06-06 20:32:00,97.0,48.0,29.79,WSW,243,7.0,11.0,19,0.00,,,0.00,,2013-06-07 03:32:00,
2013-06-06 20:43:00,97.0,48.0,29.79,WSW,243,7.0,11.0,19,0.00,,,0.00,,2013-06-07 03:43:00,
2013-06-06 20:53:00,95.0,46.0,29.79,WSW,240,8.0,17.0,19,0.00,,,0.00,,2013-06-07 03:53:00,
2013-06-06 21:02:00,94.0,45.0,29.80,SW,229,8.0,17.0,19,0.00,,,0.00,,2013-06-07 04:02:00,
2013-06-06 21:12:00,94.0,45.0,29.80,SW,229,8.0,17.0,19,0.00,,,0.00,,2013-06-07 04:12:00,
2013-06-06 21:22:00,93.0,46.0,29.80,SW,233,11.0,19.0,20,0.00,,,0.00,,2013-06-07 04:22:00,
2013-06-06 21:33:00,93.0,46.0,29.80,West,259,6.0,20.0,20,0.00,,,0.00,,2013-06-07 04:33:00,
2013-06-06 21:42:00,93.0,46.0,29.80,West,259,6.0,20.0,20,0.00,,,0.00,,2013-06-07 04:42:00,
2013-06-06 21:53:00,92.0,45.0,29.82,SSW,209,10.0,14.0,20,0.00,,,0.00,,2013-06-07 04:53:00,
2013-06-06 22:02:00,92.0,45.0,29.82,SW,225,12.0,18.0,20,0.00,,,0.00,,2013-06-07 05:02:00,
2013-06-06 22:12:00,92.0,45.0,29.82,SW,225,12.0,18.0,20,0.00,,,0.00,,2013-06-07 05:12:00,
2013-06-06 22:22:00,91.0,46.0,29.82,SSW,198,13.0,22.0,21,0.00,,,0.00,,2013-06-07 05:22:00,
2013-06-06 22:32:00,91.0,47.0,29.82,SW,215,12.0,19.0,22,0.00,,,0.00,,2013-06-07 05:32:00,
2013-06-06 22:42:00,91.0,47.0,29.82,SW,215,12.0,19.0,22,0.00,,,0.00,,2013-06-07 05:42:00,
2013-06-06 22:52:00,90.0,47.0,29.83,WSW,242,11.0,17.0,23,0.00,,,0.00,,2013-06-07 05:52:00,
2013-06-06 23:02:00,89.0,47.0,29.82,SW,215,12.0,19.0,24,0.00,,,0.00,,2013-06-07 06:02:00,
2013-06-06 23:12:00,89.0,47.0,29.82,SW,215,12.0,19.0,24,0.00,,,0.00,,2013-06-07 06:12:00,
2013-06-06 23:21:00,88.0,47.0,29.82,SSW,200,15.0,19.0,24,0.00,,,0.00,,2013-06-07 06:21:00,
2013-06-06 23:32:00,88.0,47.0,29.82,SSW,196,12.0,21.0,24,0.00,,,0.00,,2013-06-07 06:32:00,
2013-06-06 23:41:00,88.0,47.0,29.82,SSW,196,12.0,21.0,24,0.00,,,0.00,,2013-06-07 06:41:00,
2013-06-06 23:52:00,88.0,48.0,29.82,SSW,200,14.0,19.0,25,0.00,,,0.00,,2013-06-07 06:52:00,